Starlink 11423

operational
NORAD ID: 61950 Int'l Des: 2024-209 Owner: SPXS Country: US Constellation: starlink
LEOCIRCULAR

About Starlink 11423

Description loading...

Live Position

Loading 3D Globe...

Upcoming Passes

Altitude History

Altitude vs Time

uPlot chart will show altitude changes over time

Two-Line Element Set

1 61950U 24209M 25258.44470937 .00653267 00000-0 49447-2 0 9997
2 61950 53.1566 155.1617 0001775 54.1530 305.9653 15.69903082 49190
Epoch: Sep 15, 2025 • Age: 12 hours

Current Status

Altitude 357.9 km
Velocity 7.70 km/s
Sub-Earth Point -1.92°S, 172.81°E
Launch Date Nov 14, 2024
Age 0.8 years
Type internet

Technical Details

Classification Payload
Mass 960.00 kg
Dry Mass 910.00 kg
Total Mass 960.00 kg
Length 0.30 m
Diameter 4.10 m
Span 29.00 m
Shape Box + pan
Manufacturer SPXS
Bus Type Starlink V2MD
Phase Status In Orbit
Owner/State SPXS/US

Large Constellations

Loading constellations...